SL-8 DEB, 1634

Orbit data source: Space-Track

SL-8 DEB, 1634 is space debris in LEO originally from a launch on Mon, 15 Mar 1965 UTC launched from the Tyuratam Missile And Space Complex (TTMTR). Debris objects in space refer to the collection of defunct objects orbiting the Earth. Examples of debris include non-operational satellites, rocket bodies, and fragments generated from explosions, collisions, or faulty payload assembly.

Loading next visibility...
Identifier
1634, 1965-020ED
Orbit
LEO
Country
Flag of CISCIS
Related business
Manufacturer
Unknown
Mission
Spacecraft
Bus & Motor
Unknown
Mass
Unknown
Launch date (UTC)
1965-03-15 (61 years ago)
Launch vehicle
Unknown
Launch site
Tyuratam Missile And Space Complex (TTMTR)
Object type
Payload
Rocket body
Debris
Shape & HBR
Unknown
Radar Cross Section
Small (<0.1 m²)

Expand to show TLE details & history
Last TLE update: 17 hours ago

TLE from 17 hours ago
0 SL-8 DEB
1 01634U 65020ED  25259.84232899  .00000053  00000-0  26944-3 0  9991
2 01634  56.1520  88.1207 0856573  72.3403 296.9105 12.48469175728347
Epoch: 2025-09-16T20:12Z
TLE epoch observation values (Epoch: 2025-09-16T20:12:57.224Z)
Latitude
-0.00007°
Longitude
148.85539°
Altitude
1,216.053 km
Speed
7.364 km/s
True Right ascension
05h 52m 28s
True Declination
0° 00' 00"
Sunlit
Object was in daylight at epoch
Visualization orbit readout
Latitude
Unknown
Longitude
Unknown
Altitude
Unknown
Speed
Unknown
Apparent Right ascension
Unknown
Apparent Declination
Unknown
Sunlit
N/A
Visualization observer readout
Local Sidereal Time
05:36:15
Azimuth
Unknown
Elevation
Unknown
Doppler factor
Unknown
Orbital elements
Apogee altitude
2,143.024 km
Perigee altitude
798.402 km
Semi-major axis
7,848.85 km
Eccentricity
0.08566
Inclination
56.152°
RAAN
88.1207°
Arg. of periapsis
72.3403°
True anomaly
287.75236°
Mean anomaly
296.9105°
Eccentric anomaly
292.3721°
Mean motion
3.12129 °/min
Orbital period
115.34 mins
BSTAR
0.00026944
Loading maneuver chart data...
Computing Atmospheric mass density...
Loading historical data...
Loading historical data...
Loading historical data...
Loading historical data...
Loading historical data...
Loading historical data...
Loading historical data...

Documentation

Showing up to 5 results
|